CW0454 Weather Reports


Display with metric or nautical units.
time (UTC)temp
F
wind
direction
speed
MPH
gust
MPH
rain 1hr
in
rain 24hr
in
rain mn
in
humidity
%
barometer
mb
20260509062403 57 107 1.0 5.0 0.00 0.00 0.00 74 1011.1
20260509060359 57 133 2.0 5.0 0.00 0.00 0.00 73 1011.4
20260509055358 57 139 2.0 7.0 0.00 0.00 0.00 73 1011.4
20260509054359 57 126 2.0 8.0 0.00 0.00 0.00 72 1011.4
20260509053358 57 106 1.0 7.0 0.00 0.00 0.00 72 1011.4
20260509052359 57 110 2.0 8.0 0.00 0.00 0.00 72 1011.4
20260509051359 57 126 3.0 10.0 0.00 0.00 0.00 72 1011.3
20260509050358 57 115 4.0 10.0 0.00 0.00 0.00 72 1011.4
20260509045359 57 115 3.0 9.0 0.00 0.00 0.00 72 1011.5
20260509044359 57 111 3.0 11.0 0.00 0.00 0.00 72 1011.5
20260509043359 57 116 3.0 8.0 0.00 0.00 0.00 72 1011.5
20260509042359 57 135 3.0 7.0 0.00 0.00 0.00 73 1011.5
20260509041359 58 109 2.0 6.0 0.00 0.00 0.00 73 1011.5
20260509040359 58 121 3.0 8.0 0.00 0.00 0.00 74 1011.6
20260509035359 58 115 3.0 10.0 0.00 0.00 0.00 75 1011.7
20260509034359 58 121 3.0 10.0 0.00 0.00 0.00 76 1011.6
20260509033359 57 110 2.0 7.0 0.00 0.00 0.00 77 1011.5
20260509032359 57 123 2.0 6.0 0.00 0.00 0.00 78 1011.9
20260509031359 58 118 2.0 8.0 0.00 0.00 0.00 78 1011.8
20260509030400 58 126 2.0 9.0 0.00 0.00 0.00 78 1011.8
20260509025400 58 126 3.0 8.0 0.00 0.00 0.00 78 1011.8
20260509024359 58 104 2.0 6.0 0.00 0.00 0.00 78 1011.9
20260509023359 59 117 3.0 7.0 0.00 0.00 0.00 77 1011.9
20260509022400 59 118 2.0 6.0 0.00 0.00 0.00 77 1012.0
20260509021359 60 132 2.0 7.0 0.00 0.00 0.00 76 1011.8
20260509020359 60 131 3.0 7.0 0.00 0.00 0.00 75 1011.6
20260509015400 61 123 3.0 7.0 0.00 0.00 0.00 73 1011.7
20260509014400 61 120 2.0 6.0 0.00 0.00 0.00 72 1011.7
20260509013359 61 96 1.0 8.0 0.00 0.00 0.00 71 1011.8
20260509012401 61 138 2.0 9.0 0.00 0.00 0.00 70 1011.8
20260509011359 61 105 2.0 6.0 0.00 0.00 0.00 69 1011.6
20260509010400 62 124 2.0 6.0 0.00 0.00 0.00 68 1011.5
20260509005359 62 117 2.0 6.0 0.00 0.00 0.00 67 1011.4
20260509004400 62 119 3.0 8.0 0.00 0.00 0.00 66 1011.3
20260509003359 62 134 2.0 9.0 0.00 0.00 0.00 65 1011.2
20260509002359 62 123 3.0 7.0 0.00 0.00 0.00 65 1011.2
20260509001400 62 135 3.0 8.0 0.00 0.00 0.00 63 1011.1
20260509000400 63 119 3.0 7.0 0.00 0.00 0.00 63 1011.1
20260508235359 63 117 3.0 10.0 0.00 0.00 0.00 61 1010.9
20260508234400 63 107 3.0 11.0 0.00 0.00 0.00 60 1010.8
20260508233400 64 104 3.0 10.0 0.00 0.00 0.00 59 1010.9
20260508232420 65 113 3.0 10.0 0.00 0.00 0.00 58 1010.9
20260508231421 66 119 5.0 11.0 0.00 0.00 0.00 56 1010.7
20260508230420 67 109 2.0 6.0 0.00 0.00 0.00 53 1010.4
20260508225421 67 121 1.0 4.0 0.00 0.00 0.00 45 1010.4
20260508224359 68 126 2.0 5.0 0.00 0.00 0.00 45 1010.3
20260508223400 68 142 1.0 3.0 0.00 0.00 0.00 43 1010.4
20260508222401 68 210 0.0 3.0 0.00 0.00 0.00 44 1010.4
20260508221400 69 167 2.0 5.0 0.00 0.00 0.00 39 1010.5
20260508220400 69 160 1.0 5.0 0.00 0.00 0.00 41 1010.5
20260508215401 69 183 2.0 7.0 0.00 0.00 0.00 39 1010.4
20260508214400 69 206 2.0 7.0 0.00 0.00 0.00 38 1010.3
20260508213400 69 148 2.0 7.0 0.00 0.00 0.00 39 1010.4
20260508212400 69 172 0.0 5.0 0.00 0.00 0.00 40 1010.4
20260508211400 69 157 1.0 7.0 0.00 0.00 0.00 40 1010.4
20260508210400 69 206 3.0 10.0 0.00 0.00 0.00 38 1010.3
20260508205400 69 207 2.0 5.0 0.00 0.00 0.00 36 1010.5
20260508204400 69 321 1.0 12.0 0.00 0.00 0.00 38 1010.4
20260508203400 69 220 3.0 11.0 0.00 0.00 0.00 35 1010.6
20260508202400 70 186 3.0 8.0 0.00 0.00 0.00 36 1010.6
20260508201421 71 237 3.0 10.0 0.00 0.00 0.00 36 1010.7
20260508200400 71 266 1.0 8.0 0.00 0.00 0.00 34 1010.7
20260508195400 72 260 4.0 11.0 0.00 0.00 0.00 33 1010.7
20260508194400 73 205 5.0 12.0 0.00 0.00 0.00 32 1010.9
20260508193401 73 237 7.0 14.0 0.00 0.00 0.00 33 1011.3
20260508192400 72 259 4.0 12.0 0.00 0.00 0.00 36 1011.3
20260508191443 73 222 2.0 9.0 0.00 0.00 0.00 33 1011.5
20260508190400 73 181 4.0 11.0 0.00 0.00 0.00 34 1011.6
20260508185400 73 252 4.0 16.0 0.00 0.00 0.00 33 1011.6
20260508184401 73 256 5.0 15.0 0.00 0.00 0.00 34 1011.6
20260508183401 72 229 5.0 12.0 0.00 0.00 0.00 38 1011.9
20260508182400 71 239 3.0 9.0 0.00 0.00 0.00 36 1011.9
20260508181401 70 248 3.0 11.0 0.00 0.00 0.00 36 1012.0
20260508180400 72 249 4.0 13.0 0.00 0.00 0.00 35 1012.2
20260508175401 71 242 4.0 13.0 0.00 0.00 0.00 35 1012.2
20260508174400 71 219 2.0 12.0 0.00 0.00 0.00 38 1012.3
20260508173401 71 199 5.0 11.0 0.00 0.00 0.00 39 1012.5
20260508172422 71 223 7.0 13.0 0.00 0.00 0.00 37 1012.6
20260508171401 70 249 3.0 18.0 0.00 0.00 0.00 39 1012.7
20260508170401 70 231 5.0 15.0 0.00 0.00 0.00 38 1012.9
20260508165421 70 207 6.0 15.0 0.00 0.00 0.00 40 1012.9
20260508164402 69 210 4.0 14.0 0.00 0.00 0.00 39 1012.9
20260508163401 68 256 3.0 17.0 0.00 0.00 0.00 43 1013.0
20260508162422 68 221 4.0 15.0 0.00 0.00 0.00 41 1013.1
20260508161401 68 236 5.0 13.0 0.00 0.00 0.00 43 1013.4
20260508160400 67 233 3.0 14.0 0.00 0.00 0.00 42 1013.3
20260508155401 67 213 5.0 13.0 0.00 0.00 0.00 45 1013.6
20260508154401 66 200 2.0 18.0 0.00 0.00 0.00 46 1013.7
20260508153401 65 243 5.0 13.0 0.00 0.00 0.00 44 1013.9
20260508152445 64 226 5.0 14.0 0.00 0.00 0.00 45 1013.9
20260508151422 64 256 6.0 11.0 0.00 0.00 0.00 46 1014.1
20260508150401 64 195 3.0 9.0 0.00 0.00 0.00 45 1014.1
20260508145402 64 214 4.0 13.0 0.00 0.00 0.00 46 1014.2
20260508143422 62 267 5.0 10.0 0.00 0.00 0.00 46 1014.3
20260508142422 61 234 5.0 11.0 0.00 0.00 0.00 48 1014.3
20260508141402 61 242 3.0 9.0 0.00 0.00 0.00 51 1014.5
20260508140401 60 233 2.0 7.0 0.00 0.00 0.00 54 1014.5
20260508135402 59 140 2.0 7.0 0.00 0.00 0.00 56 1014.6
20260508134401 59 215 2.0 4.0 0.00 0.00 0.00 59 1014.7
20260508133402 58 164 2.0 5.0 0.00 0.00 0.00 59 1014.7
20260508132423 57 212 1.0 5.0 0.00 0.00 0.00 60 1014.8
20260508131401 56 229 1.0 5.0 0.00 0.00 0.00 62 1014.9
20260508130424 55 234 1.0 5.0 0.00 0.00 0.00 65 1014.9
20260508125422 54 201 1.0 4.0 0.00 0.00 0.00 70 1014.9
20260508124402 53 230 1.0 2.0 0.00 0.00 0.00 73 1014.9
20260508123402 52 231 0.0 3.0 0.00 0.00 0.00 76 1014.7
20260508122422 50 230 1.0 4.0 0.00 0.00 0.00 79 1014.7
20260508121402 49 229 0.0 0.0 0.00 0.00 0.00 83 1014.9
20260508120401 47 229 0.0 0.0 0.00 0.00 0.00 85 1014.8
20260508115402 46 229 0.0 0.0 0.00 0.00 0.00 87 1014.8
20260508114423 45 233 0.0 1.0 0.00 0.00 0.00 89 1014.5
20260508113402 44 233 0.0 1.0 0.00 0.00 0.00 89 1014.4
20260508112403 43 232 0.0 0.0 0.00 0.00 0.00 89 1014.4
20260508111402 42 232 0.0 0.0 0.00 0.00 0.00 89 1014.1
20260508110402 42 232 0.0 0.0 0.00 0.00 0.00 89 1014.0
20260508105402 41 232 0.0 1.0 0.00 0.00 0.00 88 1014.0
20260508104402 41 225 0.0 0.0 0.00 0.00 0.00 88 1014.0
20260508103402 41 225 0.0 0.0 0.00 0.00 0.00 87 1013.9
20260508102402 42 224 0.0 1.0 0.00 0.00 0.00 87 1013.8
20260508101402 42 228 0.0 1.0 0.00 0.00 0.00 87 1013.7
20260508100402 42 229 0.0 0.0 0.00 0.00 0.00 87 1013.5
20260508095402 43 229 0.0 0.0 0.00 0.00 0.00 86 1013.4
20260508094403 43 229 0.0 1.0 0.00 0.00 0.00 86 1013.4
20260508093402 44 229 0.0 1.0 0.00 0.00 0.00 86 1013.3
20260508092445 44 233 0.0 0.0 0.00 0.00 0.00 85 1013.2
20260508091403 45 233 0.0 0.0 0.00 0.00 0.00 85 1013.2
20260508090402 45 233 0.0 0.0 0.00 0.01 0.00 84 1013.2
20260508085402 45 233 0.0 3.0 0.00 0.01 0.00 83 1013.0
20260508084402 46 231 0.0 1.0 0.00 0.01 0.00 83 1013.0
20260508083402 46 232 0.0 2.0 0.00 0.01 0.00 82 1012.8
20260508082403 47 231 1.0 5.0 0.00 0.01 0.00 83 1012.8
20260508081402 48 265 0.0 3.0 0.00 0.01 0.00 85 1012.6
20260508080403 48 265 2.0 6.0 0.00 0.01 0.00 86 1012.5
20260508075402 48 266 1.0 4.0 0.00 0.01 0.00 87 1012.4
20260508074403 47 261 1.0 4.0 0.00 0.01 0.00 89 1012.2
20260508073403 47 285 2.0 4.0 0.00 0.01 0.00 89 1011.9
20260508072402 47 287 0.0 2.0 0.00 0.01 0.00 88 1011.9
20260508071403 48 287 0.0 2.0 0.00 0.01 0.00 88 1011.8
20260508070402 48 287 0.0 2.0 0.00 0.01 0.00 88 1011.6
20260508065403 49 287 0.0 3.0 0.00 0.01 0.00 87 1011.5
20260508064403 49 288 1.0 4.0 0.00 0.01 0.00 87 1011.3
20260508063402 49 224 1.0 4.0 0.00 0.01 0.00 87 1011.2